STARLINK-34091, 63808

Orbit data source: Space-Track

STARLINK-34091, 63808 is a payload satellite owned by SpaceX/Seattle (US) in LEO that was launched on Sun, 04 May 2025 UTC via an FALCON 9 launch vehicle from the Air Force Eastern Test Range (AFETR). Payload-class satellites include a variety of spacecraft equipped with specific instruments for various scientific and technological missions. These include communications satellites like Starlink; space stations such as the ISS; scientific satellites like the Hubble; Earth observation satellites from companies like Planet Labs, Umbra, and HawkEye 360; GPS; miniature CubeSats for education and research; and military/defense satellites.

Loading next visibility...
Identifier
63808, 2025-092E
Orbit
LEO
Country
Flag of USUS
Related business
Manufacturer
SpaceX/Seattle
Mission
Operational Commercial Communications
Bus & Motor
STARLINK V2MO, Unknown motor
Mass
575 kg wet, ~530 kg dry
Launch date (UTC)
2025-05-04 (10 months ago)
Launch vehicle
FALCON 9
Launch site
Air Force Eastern Test Range (AFETR)
Object type
Payload
Rocket body
Debris
Shape & HBR
Box + 2 Pan, 17.7 m
Radar Cross Section
36.964 m², Large (>1 m²)

Expand to show TLE details & history
Last TLE update: 15 hours ago

TLE from 15 hours ago
0 STARLINK-34091
1 63808U 25092E   26070.58816209  .00037789  00000-0  13746-2 0  9994
2 63808  42.9994 161.9418 0001342 261.7572  98.3128 15.27607444 48951
Epoch: 2026-03-11T14:06Z
TLE epoch observation values (Epoch: 2026-03-11T14:06:57.204Z)
Latitude
0.00001°
Longitude
140.95322°
Altitude
482.875 km
Speed
7.626 km/s
True Right ascension
10h 47m 46s
True Declination
0° 00' 00"
Sunlit
Object was in full shadow at epoch
Visualization orbit readout
Latitude
Unknown
Longitude
Unknown
Altitude
Unknown
Speed
Unknown
Apparent Right ascension
Unknown
Apparent Declination
Unknown
Sunlit
N/A
Visualization observer readout
Local Sidereal Time
09:17:20
Azimuth
Unknown
Elevation
Unknown
Doppler factor
Unknown
Orbital elements
Apogee altitude
485.833 km
Perigee altitude
483.991 km
Semi-major axis
6,863.049 km
Eccentricity
0.00013
Inclination
42.9994°
RAAN
161.9418°
Arg. of periapsis
261.7572°
True anomaly
98.32802°
Mean anomaly
98.3128°
Eccentric anomaly
98.32041°
Mean motion
3.8174 °/min
Orbital period
94.31 mins
BSTAR
0.0013746
Loading maneuver chart data...
Computing Atmospheric mass density...
Loading historical data...
Loading historical data...
Loading historical data...
Loading historical data...
Loading historical data...
Loading historical data...
Loading historical data...

Documentation

Showing up to 5 results
|